This is the latest recevied weather packets stored in our database for station/object K7JGC-9. If no packets are shown the sender has not sent any weather packets the latest 10 day(s).
| Time | Temp. | Humidity | Pressure | Rain* | Wind** | Luminosity | Snow |
|---|---|---|---|---|---|---|---|
| 1778098994 | 18.33° C | 69% | 1021.6 hPa | 0 mm | - | 218 W/m² | - |
| 1778097192 | 17.22° C | 73% | 1021.6 hPa | 0 mm | - | 150 W/m² | - |
| 1778095389 | 17.22° C | 72% | 1022 hPa | 0 mm | - | 143 W/m² | - |
| 1778093585 | 16.67° C | 74% | 1021.9 hPa | 0 mm | - | 98 W/m² | - |
| 1778091783 | 16.67° C | 74% | 1021.8 hPa | 0 mm | - | 115 W/m² | - |
| 1778089983 | 16.11° C | 75% | 1021.7 hPa | 0 mm | - | 93 W/m² | - |
| 1778088182 | 16.11° C | 74% | 1021.5 hPa | 0 mm | - | 93 W/m² | - |
| 1778086379 | 15.56° C | 77% | 1021.6 hPa | 0 mm | - | 84 W/m² | - |
| 1778084576 | 15.56° C | 78% | 1021.5 hPa | 0 mm | - | 99 W/m² | - |
| 1778082771 | 15° C | 79% | 1020.9 hPa | 0 mm | - | 102 W/m² | - |
| 1778080968 | 13.89° C | 82% | 1021.6 hPa | 0 mm | - | 41 W/m² | - |
| 1778079168 | 13.89° C | 82% | 1021.4 hPa | 0 mm | - | 25 W/m² | - |
| 1778077365 | 13.89° C | 82% | 1020.9 hPa | 0 mm | - | 19 W/m² | - |
| 1778075559 | 13.89° C | 85% | 1020.6 hPa | 0 mm | - | 15 W/m² | - |
| 1778073758 | 13.33° C | 87% | 1020.5 hPa | 0 mm | - | 7 W/m² | - |
| 1778071953 | 13.33° C | 86% | 1020.1 hPa | 0 mm | - | 1 W/m² | - |
| 1778070149 | 13.89° C | 85% | 1020.1 hPa | 0 mm | - | 0 W/m² | - |
| 1778068347 | 13.89° C | 84% | 1019.8 hPa | 0 mm | - | 0 W/m² | - |
| 1778066542 | 13.89° C | 84% | 1019.8 hPa | 0 mm | - | 0 W/m² | - |
| 1778064743 | 13.89° C | 83% | 1019.3 hPa | 0 mm | - | 0 W/m² | - |
| 1778062939 | 13.89° C | 84% | 1018.9 hPa | 0 mm | - | 0 W/m² | - |
| 1778061135 | 13.89° C | 83% | 1018.6 hPa | 0 mm | - | 0 W/m² | - |
| 1778059331 | 14.44° C | 82% | 1018.3 hPa | 0 mm | - | 0 W/m² | - |
| 1778057531 | 14.44° C | 82% | 1018.3 hPa | 0 mm | - | 0 W/m² | - |
| 1778055728 | 14.44° C | 82% | 1018.5 hPa | 0 mm | - | 0 W/m² | - |
* Rain latest hour (hover to see other rain measurements)
** Current wind speed in m/s (hover to see current wind gust speed)